Time,TemperatureF,DewpointF,PressureIn,WindDirection,WindDirectionDegrees,WindSpeedMPH,WindSpeedGustMPH,Humidity,HourlyPrecipIn,Conditions,Clouds,dailyrainin,SolarRadiationWatts/m^2,SoftwareType,DateUTC
2013-06-14 00:00:00,67.8,56.0,29.61,NW,320,4.0,4.0,66,0.00,,,0.00,0,Wunderground v.1.15,2013-06-14 04:00:00,
2013-06-14 00:10:00,67.6,56.2,29.61,North,350,3.0,6.0,67,0.00,,,0.00,0,Wunderground v.1.15,2013-06-14 04:10:00,
2013-06-14 00:20:00,67.5,56.2,29.62,NNW,346,3.0,3.0,67,0.00,,,0.00,0,Wunderground v.1.15,2013-06-14 04:20:00,
2013-06-14 00:30:00,67.4,56.1,29.62,NNW,340,4.0,6.0,67,0.00,,,0.00,0,Wunderground v.1.15,2013-06-14 04:30:00,
2013-06-14 00:40:00,67.3,56.0,29.63,NW,326,6.0,7.0,67,0.00,,,0.00,0,Wunderground v.1.15,2013-06-14 04:40:00,
2013-06-14 00:50:00,67.0,55.7,29.63,NNW,344,4.0,11.0,67,0.00,,,0.00,0,Wunderground v.1.15,2013-06-14 04:50:00,
2013-06-14 01:00:00,66.8,55.5,29.63,NNW,338,5.0,5.0,67,0.00,,,0.00,0,Wunderground v.1.15,2013-06-14 05:00:00,
2013-06-14 01:10:00,66.6,55.7,29.64,North,9,4.0,6.0,68,0.00,,,0.00,0,Wunderground v.1.15,2013-06-14 05:10:00,
2013-06-14 01:20:00,66.4,55.5,29.64,NW,320,3.0,4.0,68,0.00,,,0.00,0,Wunderground v.1.15,2013-06-14 05:20:00,
2013-06-14 01:30:00,66.3,55.4,29.64,NNE,25,3.0,10.0,68,0.00,,,0.00,0,Wunderground v.1.15,2013-06-14 05:30:00,
2013-06-14 01:40:00,66.3,55.4,29.64,NNW,329,4.0,4.0,68,0.00,,,0.00,0,Wunderground v.1.15,2013-06-14 05:40:00,
2013-06-14 01:50:00,66.2,55.3,29.64,NNW,342,3.0,4.0,68,0.00,,,0.00,0,Wunderground v.1.15,2013-06-14 05:50:00,
2013-06-14 02:00:00,66.0,55.1,29.64,NNW,335,4.0,4.0,68,0.00,,,0.00,0,Wunderground v.1.15,2013-06-14 06:00:00,
2013-06-14 02:10:00,65.9,55.4,29.64,NNW,332,5.0,5.0,69,0.00,,,0.00,0,Wunderground v.1.15,2013-06-14 06:10:00,
2013-06-14 02:20:00,65.8,54.9,29.64,NW,313,3.0,5.0,68,0.00,,,0.00,0,Wunderground v.1.15,2013-06-14 06:20:00,
2013-06-14 02:30:00,65.7,55.2,29.66,North,350,3.0,3.0,69,0.00,,,0.00,0,Wunderground v.1.15,2013-06-14 06:30:00,
2013-06-14 02:40:00,65.5,55.1,29.66,NW,315,2.0,7.0,69,0.00,,,0.00,0,Wunderground v.1.15,2013-06-14 06:40:00,
2013-06-14 02:50:00,65.6,54.8,29.66,NNW,343,6.0,7.0,68,0.00,,,0.00,0,Wunderground v.1.15,2013-06-14 06:50:00,
2013-06-14 03:00:00,65.6,54.8,29.66,NNW,327,5.0,5.0,68,0.00,,,0.00,0,Wunderground v.1.15,2013-06-14 07:00:00,
2013-06-14 03:10:00,65.5,55.1,29.67,North,360,6.0,6.0,69,0.00,,,0.00,0,Wunderground v.1.15,2013-06-14 07:10:00,
2013-06-14 03:20:00,65.3,54.9,29.67,NNW,333,4.0,4.0,69,0.00,,,0.00,0,Wunderground v.1.15,2013-06-14 07:20:00,
2013-06-14 03:30:00,65.0,55.0,29.68,North,349,2.0,2.0,70,0.00,,,0.00,0,Wunderground v.1.15,2013-06-14 07:30:00,
2013-06-14 03:40:00,65.0,55.0,29.68,NNW,346,2.0,2.0,70,0.00,,,0.00,0,Wunderground v.1.15,2013-06-14 07:40:00,
2013-06-14 03:50:00,64.9,54.9,29.68,NNW,344,1.0,1.0,70,0.00,,,0.00,0,Wunderground v.1.15,2013-06-14 07:50:00,
2013-06-14 04:00:00,64.7,55.1,29.69,NNW,338,2.0,2.0,71,0.00,,,0.00,0,Wunderground v.1.15,2013-06-14 08:00:00,
2013-06-14 04:10:00,64.6,55.0,29.69,North,355,2.0,2.0,71,0.00,,,0.00,0,Wunderground v.1.15,2013-06-14 08:10:00,
2013-06-14 04:20:00,64.4,54.8,29.70,NNW,347,0.0,0.0,71,0.00,,,0.00,0,Wunderground v.1.15,2013-06-14 08:20:00,
2013-06-14 04:30:00,64.2,55.0,29.70,NNW,347,0.0,0.0,72,0.00,,,0.00,0,Wunderground v.1.15,2013-06-14 08:30:00,
2013-06-14 04:40:00,64.0,55.2,29.71,North,355,1.0,1.0,73,0.00,,,0.00,0,Wunderground v.1.15,2013-06-14 08:40:00,
2013-06-14 04:50:00,63.9,55.1,29.71,NNW,345,1.0,2.0,73,0.00,,,0.00,0,Wunderground v.1.15,2013-06-14 08:50:00,
2013-06-14 05:00:00,63.8,55.0,29.71,NNW,330,1.0,1.0,73,0.00,,,0.00,0,Wunderground v.1.15,2013-06-14 09:00:00,
2013-06-14 05:10:00,63.7,54.9,29.72,North,350,1.0,1.0,73,0.00,,,0.00,0,Wunderground v.1.15,2013-06-14 09:10:00,
2013-06-14 05:20:00,63.6,55.2,29.72,NNW,329,1.0,1.0,74,0.00,,,0.00,0,Wunderground v.1.15,2013-06-14 09:20:00,
2013-06-14 05:30:00,63.6,54.8,29.73,NNW,340,1.0,1.0,73,0.00,,,0.00,0,Wunderground v.1.15,2013-06-14 09:30:00,
2013-06-14 05:40:00,63.5,54.7,29.74,NNW,336,1.0,1.0,73,0.00,,,0.00,0,Wunderground v.1.15,2013-06-14 09:40:00,
2013-06-14 05:50:00,63.4,54.6,29.73,NW,309,1.0,1.0,73,0.00,,,0.00,0,Wunderground v.1.15,2013-06-14 09:50:00,
2013-06-14 06:00:00,63.2,54.4,29.74,NNW,327,2.0,2.0,73,0.00,,,0.00,0,Wunderground v.1.15,2013-06-14 10:00:00,
2013-06-14 06:10:00,63.0,54.2,29.75,NW,305,1.0,1.0,73,0.00,,,0.00,0,Wunderground v.1.15,2013-06-14 10:10:00,
2013-06-14 06:20:00,62.9,54.1,29.74,NNW,329,2.0,2.0,73,0.00,,,0.00,9,Wunderground v.1.15,2013-06-14 10:20:00,
2013-06-14 06:30:00,62.8,54.0,29.75,WNW,302,2.0,6.0,73,0.00,,,0.00,23,Wunderground v.1.15,2013-06-14 10:30:00,
2013-06-14 06:40:00,62.7,54.3,29.76,NNW,333,2.0,2.0,74,0.00,,,0.00,30,Wunderground v.1.15,2013-06-14 10:40:00,
2013-06-14 06:50:00,62.6,54.2,29.76,NW,306,2.0,2.0,74,0.00,,,0.00,35,Wunderground v.1.15,2013-06-14 10:50:00,
2013-06-14 07:00:00,62.6,54.2,29.76,NW,325,2.0,4.0,74,0.00,,,0.00,46,Wunderground v.1.15,2013-06-14 11:00:00,
2013-06-14 07:10:00,62.6,54.2,29.76,North,5,3.0,4.0,74,0.00,,,0.00,63,Wunderground v.1.15,2013-06-14 11:10:00,
2013-06-14 07:20:00,62.6,54.2,29.77,NNW,327,2.0,2.0,74,0.00,,,0.00,74,Wunderground v.1.15,2013-06-14 11:20:00,
2013-06-14 07:30:00,62.7,54.3,29.78,NW,309,2.0,2.0,74,0.00,,,0.00,77,Wunderground v.1.15,2013-06-14 11:30:00,
2013-06-14 07:40:00,62.6,54.2,29.78,NW,317,2.0,2.0,74,0.00,,,0.00,100,Wunderground v.1.15,2013-06-14 11:40:00,
2013-06-14 07:50:00,63.0,54.9,29.79,WNW,284,2.0,2.0,75,0.00,,,0.00,120,Wunderground v.1.15,2013-06-14 11:50:00,
2013-06-14 08:00:00,63.8,55.0,29.80,NW,308,2.0,2.0,73,0.00,,,0.00,392,Wunderground v.1.15,2013-06-14 12:00:00,
2013-06-14 08:10:00,65.2,55.9,29.80,WNW,282,3.0,5.0,72,0.00,,,0.00,503,Wunderground v.1.15,2013-06-14 12:10:00,
2013-06-14 08:20:00,64.4,55.2,29.80,NNW,341,3.0,3.0,72,0.00,,,0.00,207,Wunderground v.1.15,2013-06-14 12:20:00,
2013-06-14 08:30:00,65.1,55.5,29.81,NW,310,4.0,4.0,71,0.00,,,0.00,387,Wunderground v.1.15,2013-06-14 12:30:00,
2013-06-14 08:40:00,65.8,56.1,29.81,NNW,331,2.0,3.0,71,0.00,,,0.00,478,Wunderground v.1.15,2013-06-14 12:40:00,
2013-06-14 08:50:00,66.3,56.2,29.81,NNW,343,4.0,4.0,70,0.00,,,0.00,490,Wunderground v.1.15,2013-06-14 12:50:00,
2013-06-14 09:00:00,66.8,56.7,29.81,NW,325,4.0,5.0,70,0.00,,,0.00,524,Wunderground v.1.15,2013-06-14 13:00:00,
2013-06-14 09:10:00,67.6,56.7,29.83,NNW,337,3.0,7.0,68,0.00,,,0.00,633,Wunderground v.1.15,2013-06-14 13:10:00,
2013-06-14 09:20:00,67.0,56.5,29.83,NW,325,4.0,4.0,69,0.00,,,0.00,241,Wunderground v.1.15,2013-06-14 13:20:00,
2013-06-14 09:30:00,67.5,56.2,29.83,North,350,5.0,8.0,67,0.00,,,0.00,773,Wunderground v.1.15,2013-06-14 13:30:00,
2013-06-14 09:40:00,67.8,56.9,29.84,North,5,5.0,5.0,68,0.00,,,0.00,744,Wunderground v.1.15,2013-06-14 13:40:00,
2013-06-14 09:50:00,67.6,55.8,29.84,North,360,5.0,8.0,66,0.00,,,0.00,197,Wunderground v.1.15,2013-06-14 13:50:00,
2013-06-14 10:00:00,68.6,56.8,29.84,NNW,344,4.0,4.0,66,0.00,,,0.00,854,Wunderground v.1.15,2013-06-14 14:00:00,
2013-06-14 10:10:00,68.1,55.9,29.85,NNW,331,4.0,9.0,65,0.00,,,0.00,304,Wunderground v.1.15,2013-06-14 14:10:00,
2013-06-14 10:20:00,68.0,56.2,29.86,NNW,335,5.0,5.0,66,0.00,,,0.00,346,Wunderground v.1.15,2013-06-14 14:20:00,
2013-06-14 10:30:00,67.6,55.0,29.86,NNW,336,5.0,5.0,64,0.00,,,0.00,279,Wunderground v.1.15,2013-06-14 14:30:00,
2013-06-14 10:40:00,68.3,57.3,29.86,NW,323,4.0,4.0,68,0.00,,,0.00,810,Wunderground v.1.15,2013-06-14 14:40:00,
2013-06-14 10:50:00,69.2,56.1,29.86,NW,324,5.0,5.0,63,0.00,,,0.00,457,Wunderground v.1.15,2013-06-14 14:50:00,
2013-06-14 11:00:00,70.2,58.3,29.86,NNE,22,3.0,6.0,66,0.00,,,0.00,881,Wunderground v.1.15,2013-06-14 15:00:00,
2013-06-14 11:10:00,69.1,56.4,29.86,NNW,341,3.0,5.0,64,0.00,,,0.00,234,Wunderground v.1.15,2013-06-14 15:10:00,
2013-06-14 11:20:00,70.4,56.3,29.86,North,360,3.0,5.0,61,0.00,,,0.00,1005,Wunderground v.1.15,2013-06-14 15:20:00,
2013-06-14 11:30:00,70.1,56.0,29.87,North,350,2.0,4.0,61,0.00,,,0.00,919,Wunderground v.1.15,2013-06-14 15:30:00,
2013-06-14 11:40:00,71.3,57.2,29.87,NNE,13,4.0,4.0,61,0.00,,,0.00,997,Wunderground v.1.15,2013-06-14 15:40:00,
2013-06-14 11:50:00,71.3,58.5,29.86,NW,311,2.0,3.0,64,0.00,,,0.00,1013,Wunderground v.1.15,2013-06-14 15:50:00,
2013-06-14 12:00:00,72.3,56.2,29.87,WNW,302,2.0,2.0,57,0.00,,,0.00,227,Wunderground v.1.15,2013-06-14 16:00:00,
2013-06-14 12:10:00,71.3,56.7,29.87,NNW,340,3.0,3.0,60,0.00,,,0.00,216,Wunderground v.1.15,2013-06-14 16:10:00,
2013-06-14 12:20:00,72.8,57.6,29.86,North,5,3.0,3.0,59,0.00,,,0.00,1081,Wunderground v.1.15,2013-06-14 16:20:00,
2013-06-14 12:30:00,73.1,58.4,29.87,North,10,3.0,4.0,60,0.00,,,0.00,1114,Wunderground v.1.15,2013-06-14 16:30:00,
2013-06-14 12:40:00,72.7,57.5,29.87,NNW,339,2.0,3.0,59,0.00,,,0.00,1239,Wunderground v.1.15,2013-06-14 16:40:00,
2013-06-14 12:50:00,72.6,57.4,29.87,NNE,30,2.0,4.0,59,0.00,,,0.00,1206,Wunderground v.1.15,2013-06-14 16:50:00,
2013-06-14 13:00:00,73.0,57.3,29.87,NW,306,3.0,3.0,58,0.00,,,0.00,1216,Wunderground v.1.15,2013-06-14 17:00:00,
2013-06-14 13:10:00,73.3,58.6,29.87,NNW,348,3.0,10.0,60,0.00,,,0.00,1030,Wunderground v.1.15,2013-06-14 17:10:00,
2013-06-14 13:20:00,74.9,57.1,29.87,WSW,257,3.0,9.0,54,0.00,,,0.00,1176,Wunderground v.1.15,2013-06-14 17:20:00,
2013-06-14 13:30:00,74.0,57.3,29.86,NNW,327,2.0,6.0,56,0.00,,,0.00,1041,Wunderground v.1.15,2013-06-14 17:30:00,
2013-06-14 13:40:00,75.0,57.7,29.87,WNW,285,3.0,3.0,55,0.00,,,0.00,1076,Wunderground v.1.15,2013-06-14 17:40:00,
2013-06-14 13:50:00,75.4,57.1,29.86,NW,306,3.0,3.0,53,0.00,,,0.00,1076,Wunderground v.1.15,2013-06-14 17:50:00,
2013-06-14 14:00:00,75.0,57.2,29.86,WNW,286,3.0,3.0,54,0.00,,,0.00,246,Wunderground v.1.15,2013-06-14 18:00:00,
2013-06-14 14:10:00,76.1,57.2,29.86,NW,317,2.0,2.0,52,0.00,,,0.00,1086,Wunderground v.1.15,2013-06-14 18:10:00,
2013-06-14 14:20:00,75.2,57.4,29.86,NNW,348,3.0,3.0,54,0.00,,,0.00,956,Wunderground v.1.15,2013-06-14 18:20:00,
2013-06-14 14:30:00,75.8,56.4,29.86,North,351,3.0,3.0,51,0.00,,,0.00,983,Wunderground v.1.15,2013-06-14 18:30:00,
2013-06-14 14:40:00,76.0,57.1,29.86,NW,323,4.0,4.0,52,0.00,,,0.00,976,Wunderground v.1.15,2013-06-14 18:40:00,
2013-06-14 14:50:00,76.3,55.7,29.87,NNW,348,5.0,5.0,49,0.00,,,0.00,1020,Wunderground v.1.15,2013-06-14 18:50:00,
2013-06-14 15:00:00,76.7,55.5,29.86,NNW,340,4.0,4.0,48,0.00,,,0.00,1002,Wunderground v.1.15,2013-06-14 19:00:00,
2013-06-14 15:10:00,77.0,56.4,29.86,NW,324,3.0,3.0,49,0.00,,,0.00,988,Wunderground v.1.15,2013-06-14 19:10:00,
2013-06-14 15:20:00,77.6,56.9,29.86,NNW,327,4.0,6.0,49,0.00,,,0.00,907,Wunderground v.1.15,2013-06-14 19:20:00,
2013-06-14 15:30:00,76.8,54.5,29.86,North,11,3.0,3.0,46,0.00,,,0.00,902,Wunderground v.1.15,2013-06-14 19:30:00,
2013-06-14 15:40:00,77.6,58.0,29.85,North,350,4.0,8.0,51,0.00,,,0.00,837,Wunderground v.1.15,2013-06-14 19:40:00,
2013-06-14 15:50:00,77.4,56.7,29.86,North,9,2.0,4.0,49,0.00,,,0.00,921,Wunderground v.1.15,2013-06-14 19:50:00,
2013-06-14 16:00:00,76.5,55.9,29.85,North,9,3.0,3.0,49,0.00,,,0.00,221,Wunderground v.1.15,2013-06-14 20:00:00,
2013-06-14 16:10:00,76.3,55.2,29.85,NNW,332,2.0,2.0,48,0.00,,,0.00,805,Wunderground v.1.15,2013-06-14 20:10:00,
2013-06-14 16:20:00,77.9,54.8,29.85,WNW,301,2.0,2.0,45,0.00,,,0.00,772,Wunderground v.1.15,2013-06-14 20:20:00,
2013-06-14 16:30:00,77.3,54.9,29.85,NW,321,1.0,3.0,46,0.00,,,0.00,874,Wunderground v.1.15,2013-06-14 20:30:00,
2013-06-14 16:40:00,78.7,56.2,29.85,WNW,290,3.0,3.0,46,0.00,,,0.00,817,Wunderground v.1.15,2013-06-14 20:40:00,
2013-06-14 16:50:00,78.4,55.3,29.85,NNW,342,3.0,3.0,45,0.00,,,0.00,659,Wunderground v.1.15,2013-06-14 20:50:00,
2013-06-14 17:00:00,78.0,54.9,29.86,NW,323,2.0,2.0,45,0.00,,,0.00,144,Wunderground v.1.15,2013-06-14 21:00:00,
2013-06-14 17:10:00,76.8,55.6,29.86,NNW,334,0.0,1.0,48,0.00,,,0.00,285,Wunderground v.1.15,2013-06-14 21:10:00,
2013-06-14 17:20:00,77.4,55.6,29.86,WNW,300,2.0,4.0,47,0.00,,,0.00,737,Wunderground v.1.15,2013-06-14 21:20:00,
2013-06-14 17:30:00,77.3,54.3,29.86,North,360,4.0,4.0,45,0.00,,,0.00,244,Wunderground v.1.15,2013-06-14 21:30:00,
2013-06-14 17:40:00,77.7,57.0,29.86,NW,321,1.0,2.0,49,0.00,,,0.00,162,Wunderground v.1.15,2013-06-14 21:40:00,
2013-06-14 17:50:00,77.5,55.7,29.86,NNW,331,2.0,2.0,47,0.00,,,0.00,315,Wunderground v.1.15,2013-06-14 21:50:00,
2013-06-14 18:00:00,76.7,55.5,29.86,NNW,336,1.0,1.0,48,0.00,,,0.00,100,Wunderground v.1.15,2013-06-14 22:00:00,
2013-06-14 18:10:00,75.6,56.2,29.87,North,360,1.0,1.0,51,0.00,,,0.00,137,Wunderground v.1.15,2013-06-14 22:10:00,
2013-06-14 18:20:00,76.1,56.7,29.86,NNW,347,2.0,2.0,51,0.00,,,0.00,350,Wunderground v.1.15,2013-06-14 22:20:00,
2013-06-14 18:30:00,76.4,56.4,29.86,NW,322,2.0,2.0,50,0.00,,,0.00,260,Wunderground v.1.15,2013-06-14 22:30:00,
2013-06-14 18:40:00,75.8,56.9,29.87,NW,309,4.0,4.0,52,0.00,,,0.00,95,Wunderground v.1.15,2013-06-14 22:40:00,
2013-06-14 18:50:00,75.5,56.6,29.87,NNW,344,2.0,2.0,52,0.00,,,0.00,81,Wunderground v.1.15,2013-06-14 22:50:00,
2013-06-14 19:00:00,75.3,56.5,29.87,NNW,330,1.0,1.0,52,0.00,,,0.00,44,Wunderground v.1.15,2013-06-14 23:00:00,
2013-06-14 19:10:00,75.3,56.5,29.88,NW,311,1.0,1.0,52,0.00,,,0.00,44,Wunderground v.1.15,2013-06-14 23:10:00,
2013-06-14 19:20:00,75.0,56.2,29.88,NNW,347,1.0,5.0,52,0.00,,,0.00,44,Wunderground v.1.15,2013-06-14 23:20:00,
2013-06-14 19:30:00,74.5,56.8,29.88,NNW,341,2.0,2.0,54,0.00,,,0.00,53,Wunderground v.1.15,2013-06-14 23:30:00,
2013-06-14 19:40:00,74.2,56.5,29.89,NNW,329,1.0,1.0,54,0.00,,,0.00,35,Wunderground v.1.15,2013-06-14 23:40:00,
2013-06-14 19:50:00,73.9,56.7,29.89,NNW,342,0.0,0.0,55,0.00,,,0.00,40,Wunderground v.1.15,2013-06-14 23:50:00,
2013-06-14 20:00:00,73.4,57.7,29.89,NNW,342,0.0,0.0,58,0.00,,,0.00,25,Wunderground v.1.15,2013-06-15 00:00:00,
2013-06-14 20:10:00,72.9,57.7,29.89,NNW,336,0.0,0.0,59,0.00,,,0.00,18,Wunderground v.1.15,2013-06-15 00:10:00,
2013-06-14 20:20:00,72.3,57.6,29.89,NNW,336,0.0,0.0,60,0.00,,,0.00,12,Wunderground v.1.15,2013-06-15 00:20:00,
2013-06-14 20:30:00,71.7,57.1,29.90,NNW,336,0.0,0.0,60,0.00,,,0.00,7,Wunderground v.1.15,2013-06-15 00:30:00,
2013-06-14 20:40:00,71.0,56.9,29.90,NNW,336,0.0,0.0,61,0.00,,,0.00,0,Wunderground v.1.15,2013-06-15 00:40:00,
2013-06-14 20:50:00,69.2,57.8,29.90,NNW,336,0.0,0.0,67,0.00,,,0.00,0,Wunderground v.1.15,2013-06-15 00:50:00,
2013-06-14 21:00:00,67.7,57.2,29.91,NNW,336,0.0,0.0,69,0.00,,,0.00,0,Wunderground v.1.15,2013-06-15 01:00:00,
2013-06-14 21:10:00,66.1,57.6,29.91,NNW,336,0.0,0.0,74,0.00,,,0.00,0,Wunderground v.1.15,2013-06-15 01:10:00,
2013-06-14 21:20:00,64.4,58.1,29.91,NNW,336,0.0,0.0,80,0.00,,,0.00,0,Wunderground v.1.15,2013-06-15 01:20:00,
2013-06-14 21:30:00,64.2,58.6,29.91,NNW,336,0.0,0.0,82,0.00,,,0.00,0,Wunderground v.1.15,2013-06-15 01:30:00,
2013-06-14 21:40:00,63.2,58.3,29.92,NNW,336,0.0,0.0,84,0.00,,,0.00,0,Wunderground v.1.15,2013-06-15 01:40:00,
2013-06-14 21:50:00,62.8,58.2,29.92,NNW,336,0.0,0.0,85,0.00,,,0.00,0,Wunderground v.1.15,2013-06-15 01:50:00,
2013-06-14 22:00:00,62.6,58.0,29.92,NNW,336,0.0,0.0,85,0.00,,,0.00,0,Wunderground v.1.15,2013-06-15 02:00:00,
2013-06-14 22:10:00,62.8,57.9,29.93,NNW,336,0.0,0.0,84,0.00,,,0.00,0,Wunderground v.1.15,2013-06-15 02:10:00,
2013-06-14 22:20:00,64.1,57.8,29.93,NNW,336,0.0,0.0,80,0.00,,,0.00,0,Wunderground v.1.15,2013-06-15 02:20:00,
2013-06-14 22:30:00,64.3,57.6,29.94,NNW,336,0.0,0.0,79,0.00,,,0.00,0,Wunderground v.1.15,2013-06-15 02:30:00,
2013-06-14 22:40:00,64.9,57.5,29.94,NNW,336,0.0,0.0,77,0.00,,,0.00,0,Wunderground v.1.15,2013-06-15 02:40:00,
2013-06-14 22:50:00,65.1,57.3,29.94,NNW,336,0.0,0.0,76,0.00,,,0.00,0,Wunderground v.1.15,2013-06-15 02:50:00,
2013-06-14 23:00:00,65.5,57.4,29.95,NNW,336,0.0,0.0,75,0.00,,,0.00,0,Wunderground v.1.15,2013-06-15 03:00:00,
2013-06-14 23:10:00,65.2,57.4,29.94,NNW,336,0.0,0.0,76,0.00,,,0.00,0,Wunderground v.1.15,2013-06-15 03:10:00,
2013-06-14 23:20:00,65.6,57.5,29.95,NNW,336,0.0,0.0,75,0.00,,,0.00,0,Wunderground v.1.15,2013-06-15 03:20:00,
2013-06-14 23:30:00,65.0,57.6,29.95,NNW,336,0.0,0.0,77,0.00,,,0.00,0,Wunderground v.1.15,2013-06-15 03:30:00,
2013-06-14 23:40:00,64.8,57.4,29.95,NNW,336,0.0,0.0,77,0.00,,,0.00,0,Wunderground v.1.15,2013-06-15 03:40:00,
2013-06-14 23:50:00,63.6,57.3,29.96,NNW,336,0.0,0.0,80,0.00,,,0.00,0,Wunderground v.1.15,2013-06-15 03:50:00,